REU974 FMCZ-FMEE

Flight info

Callsign REU974
Flight time N/A
Altitude 37000
Route DZP UB790 DOBUT DOBUT2R
Aircraft B77W/H-SDE1E2E3FGHIJ2J3J4J5M1RWXY/LB1D1

Departure

Time 2026-04-17 12:19
Airport Dzaoudzi Pamandzi International Airport (FMCZ)

Arrival

Time N/A
Airport Roland Garros Airport (FMEE)
Time Latitude Longitude Altitude Speed Heading
2026-04-17 11:54 -12.80312 45.28154 16 ft 0 kts 106°
2026-04-17 12:11 -12.80312 45.28153 37 ft 1 kts 106°
2026-04-17 12:11 -12.80306 45.28135 34 ft 3 kts 119°
2026-04-17 12:11 -12.80296 45.28120 35 ft 3 kts 136°
2026-04-17 12:12 -12.80276 45.28105 33 ft 1 kts 150°
2026-04-17 12:15 -12.80279 45.28106 33 ft 3 kts 150°
2026-04-17 12:15 -12.80308 45.28120 34 ft 5 kts 158°
2026-04-17 12:15 -12.80345 45.28124 37 ft 6 kts 187°
2026-04-17 12:15 -12.80393 45.28073 37 ft 17 kts 236°
2026-04-17 12:16 -12.80486 45.27971 39 ft 9 kts 189°
2026-04-17 12:16 -12.80555 45.27999 39 ft 17 kts 159°
2026-04-17 12:16 -12.80668 45.28061 38 ft 19 kts 149°
2026-04-17 12:16 -12.80781 45.28126 38 ft 19 kts 150°
2026-04-17 12:17 -12.80899 45.28197 37 ft 24 kts 147°
2026-04-17 12:17 -12.81105 45.28318 37 ft 41 kts 147°
2026-04-17 12:17 -12.81347 45.28465 38 ft 38 kts 147°
2026-04-17 12:17 -12.81541 45.28580 37 ft 22 kts 148°
2026-04-17 12:18 -12.81646 45.28601 37 ft 9 kts 175°
2026-04-17 12:18 -12.81650 45.28626 38 ft 5 kts 50°
2026-04-17 12:18 -12.81617 45.28621 38 ft 4 kts 344°
2026-04-17 12:18 -12.81570 45.28596 33 ft 36 kts 331°
2026-04-17 12:19 -12.80997 45.28262 38 ft 151 kts 328°
2026-04-17 12:19 -12.79922 45.27632 806 ft 180 kts 330°
2026-04-17 12:19 -12.78851 45.26917 2145 ft 184 kts 327°
2026-04-17 12:19 -12.77594 45.26406 2632 ft 209 kts 354°
2026-04-17 12:20 -12.76151 45.26793 3081 ft 231 kts 34°
2026-04-17 12:20 -12.75129 45.28173 3498 ft 259 kts 74°
2026-04-17 12:20 -12.75116 45.30003 4412 ft 267 kts 107°
2026-04-17 12:20 -12.76016 45.31674 5457 ft 271 kts 127°
2026-04-17 12:21 -12.77235 45.33135 6484 ft 276 kts 132°
2026-04-17 12:21 -12.78561 45.34587 7496 ft 281 kts 133°
2026-04-17 12:21 -12.79912 45.36056 8524 ft 285 kts 133°
2026-04-17 12:21 -12.81278 45.37545 9556 ft 289 kts 133°
2026-04-17 12:22 -12.82663 45.39071 10431 ft 297 kts 132°
2026-04-17 12:22 -12.84119 45.40706 10823 ft 325 kts 131°
2026-04-17 12:22 -12.85694 45.42519 11056 ft 356 kts 130°
2026-04-17 12:22 -12.87379 45.44462 11703 ft 371 kts 131°
2026-04-17 12:23 -12.89120 45.46462 12510 ft 380 kts 128°
2026-04-17 12:23 -12.90855 45.48479 13327 ft 386 kts 130°
2026-04-17 12:23 -12.92638 45.50556 14137 ft 391 kts 130°
2026-04-17 12:23 -12.94446 45.52680 14913 ft 396 kts 129°
2026-04-17 12:24 -12.96227 45.54834 15453 ft 397 kts 127°
2026-04-17 12:24 -12.98012 45.57014 15775 ft 404 kts 129°
2026-04-17 12:24 -12.99891 45.59203 16364 ft 412 kts 131°
2026-04-17 12:24 -13.01812 45.61390 17231 ft 414 kts 131°
2026-04-17 12:25 -13.03759 45.63589 18128 ft 418 kts 133°
2026-04-17 12:25 -13.05739 45.65803 18826 ft 424 kts 133°
2026-04-17 12:25 -13.07733 45.68050 19527 ft 428 kts 132°
2026-04-17 12:25 -13.09731 45.70341 20255 ft 432 kts 131°
2026-04-17 12:26 -13.11728 45.72658 20982 ft 436 kts 131°
2026-04-17 12:26 -13.13716 45.74978 21682 ft 440 kts 131°
2026-04-17 12:26 -13.15748 45.77353 22371 ft 444 kts 131°
2026-04-17 12:26 -13.17796 45.79747 23043 ft 448 kts 131°
2026-04-17 12:27 -13.19861 45.82162 23656 ft 453 kts 131°
2026-04-17 12:27 -13.21949 45.84596 24181 ft 457 kts 131°
2026-04-17 12:27 -13.24072 45.87062 24679 ft 462 kts 131°
2026-04-17 12:27 -13.26210 45.89553 25171 ft 467 kts 131°
2026-04-17 12:28 -13.28374 45.92074 25668 ft 472 kts 131°
2026-04-17 12:28 -13.30555 45.94614 26166 ft 477 kts 131°
2026-04-17 12:28 -13.32753 45.97174 26681 ft 481 kts 132°
2026-04-17 12:28 -13.34978 45.99763 27175 ft 486 kts 132°
2026-04-17 12:29 -13.37224 46.02380 27663 ft 490 kts 132°
2026-04-17 12:29 -13.39491 46.05024 28140 ft 495 kts 132°
2026-04-17 12:29 -13.41782 46.07695 28596 ft 499 kts 132°
2026-04-17 12:29 -13.44059 46.10350 29066 ft 504 kts 132°
2026-04-17 12:30 -13.46393 46.13071 29516 ft 508 kts 132°
2026-04-17 12:30 -13.48755 46.15822 29970 ft 512 kts 132°
2026-04-17 12:30 -13.51123 46.18576 30350 ft 515 kts 132°
2026-04-17 12:30 -13.53473 46.21312 30693 ft 519 kts 132°
2026-04-17 12:31 -13.55870 46.24111 31035 ft 522 kts 132°
2026-04-17 12:31 -13.58272 46.26920 31428 ft 523 kts 132°
2026-04-17 12:31 -13.60671 46.29727 31904 ft 523 kts 132°
2026-04-17 12:31 -13.63072 46.32539 32361 ft 523 kts 132°
2026-04-17 12:32 -13.65476 46.35353 32839 ft 523 kts 132°
2026-04-17 12:32 -13.67882 46.38168 33279 ft 523 kts 132°
2026-04-17 12:32 -13.70285 46.40980 33730 ft 523 kts 132°
2026-04-17 12:32 -13.72689 46.43796 34138 ft 523 kts 132°
2026-04-17 12:33 -13.75086 46.46604 34545 ft 521 kts 132°
2026-04-17 12:33 -13.77449 46.49374 34985 ft 520 kts 132°
2026-04-17 12:33 -13.79830 46.52166 35384 ft 519 kts 132°
2026-04-17 12:33 -13.82205 46.54956 35762 ft 518 kts 132°
2026-04-17 12:34 -13.84580 46.57749 36136 ft 518 kts 132°
2026-04-17 12:34 -13.86952 46.60527 36510 ft 517 kts 134°
2026-04-17 12:34 -13.89334 46.63288 36872 ft 516 kts 133°
2026-04-17 12:35 -13.94107 46.68881 36907 ft 521 kts 133°
2026-04-17 12:35 -13.98850 46.74470 36888 ft 515 kts 133°
2026-04-17 12:37 -14.17644 46.96596 36904 ft 514 kts 133°
2026-04-17 12:38 -14.22360 47.02149 36895 ft 515 kts 133°
2026-04-17 12:38 -14.26318 47.06817 36888 ft 516 kts 133°
2026-04-17 12:39 -14.31006 47.12371 36898 ft 517 kts 133°
2026-04-17 12:39 -14.36507 47.18870 36906 ft 516 kts 134°
2026-04-17 12:40 -14.41276 47.24419 36890 ft 517 kts 134°
2026-04-17 12:40 -14.45240 47.29117 36875 ft 518 kts 132°
2026-04-17 12:41 -14.49895 47.34715 36885 ft 517 kts 132°
2026-04-17 12:41 -14.54612 47.40321 36890 ft 516 kts 133°
2026-04-17 12:42 -14.59325 47.45903 36888 ft 515 kts 132°
2026-04-17 12:42 -14.64031 47.51502 36883 ft 514 kts 133°
2026-04-17 12:43 -14.68728 47.57058 36890 ft 514 kts 133°
2026-04-17 12:43 -14.73441 47.62559 36883 ft 515 kts 133°
2026-04-17 12:44 -14.78133 47.68140 36884 ft 514 kts 133°
2026-04-17 12:44 -14.82831 47.73733 36878 ft 515 kts 133°
2026-04-17 12:45 -14.87534 47.79330 36868 ft 516 kts 133°
2026-04-17 12:45 -14.92252 47.84937 36859 ft 517 kts 134°
2026-04-17 12:46 -14.96973 47.90548 36862 ft 516 kts 133°
2026-04-17 12:46 -15.01674 47.96161 36857 ft 516 kts 133°
2026-04-17 12:47 -15.06311 48.01769 36854 ft 515 kts 131°
2026-04-17 12:47 -15.10931 48.07402 36854 ft 512 kts 133°
2026-04-17 12:48 -15.15643 48.12940 36864 ft 513 kts 134°
2026-04-17 12:48 -15.20374 48.18492 36861 ft 514 kts 134°
2026-04-17 12:49 -15.25065 48.24095 36863 ft 516 kts 133°
2026-04-17 12:49 -15.29697 48.29731 36850 ft 517 kts 132°
2026-04-17 12:50 -15.34353 48.35399 36860 ft 516 kts 131°
2026-04-17 12:50 -15.38900 48.41015 36868 ft 504 kts 132°
2026-04-17 12:51 -15.43672 48.46470 36889 ft 516 kts 135°
2026-04-17 12:51 -15.48528 48.52011 36881 ft 520 kts 134°
2026-04-17 12:52 -15.53239 48.57627 36874 ft 520 kts 133°
2026-04-17 12:52 -15.57929 48.63335 36862 ft 519 kts 133°
2026-04-17 12:53 -15.62597 48.69023 36889 ft 517 kts 133°
2026-04-17 12:53 -15.67264 48.74688 36903 ft 515 kts 133°
2026-04-17 12:54 -15.71924 48.80331 36911 ft 514 kts 133°
2026-04-17 12:54 -15.76568 48.85959 36925 ft 513 kts 133°
2026-04-17 12:55 -15.81182 48.91562 36906 ft 513 kts 133°
2026-04-17 12:55 -15.85820 48.97200 36930 ft 513 kts 133°
2026-04-17 12:56 -15.90453 49.02833 36932 ft 513 kts 133°
2026-04-17 12:56 -15.95097 49.08482 36940 ft 514 kts 133°
2026-04-17 12:57 -15.99742 49.14133 36965 ft 514 kts 133°
2026-04-17 12:57 -16.04346 49.19771 36954 ft 514 kts 132°
2026-04-17 12:58 -16.08929 49.25487 36961 ft 515 kts 132°
2026-04-17 12:58 -16.13510 49.31215 36968 ft 515 kts 132°